Location: Bijele Vode
(45.2833°N, 16.2000°E)
Time: 14:44:23
(UTC+00:00)

SJ 16-02 - Pass Details

Date: 18 September 2020
Orbit: 606 x 616 km, 75.0° (Epoch: 31 October)

Event Time Altitude Azimuth Distance (km) Brightness Sun altitude
Rises 17:57:50 0° 223° (SW) 2,854 5.2 -10.9°
Reaches altitude 10° 18:00:15 10° 234° (SW) 1,954 4.5 -11.3°
Maximum altitude 18:04:11 32° 298° (WNW) 1,051 3.3 -12.0°
Drops below altitude 10° 18:08:07 10° 2° (N) 1,965 4.1 -12.7°
Sets 18:10:34 0° 12° (NNE) 2,874 4.8 -13.1°
